tititudorancea.com
Station Historical Data
Daily Summary for March 23, 2018 Units:  Metric    English   Both
« Previous Day
Next Day »
Daily Weekly Monthly Yearly Custom
  High: Low: Average:
Temperature: -17.8 °C 15.6 °C 21.3 °C
Dew Point: -17.8 °C 8.4 °C 10.6 °C
Humidity: Humidity % 36 % 51 %
Wind Speed: 0 km/h 0 km/h 9.2 km/h
Wind Gust: 0 km/h - -
Wind:- - ENE
Pressure: 0 hPa 1013.4 hPa -
Precipitation: 0 mm    
Historical Graphs
 
 
Ararat weather Find more about Weather in Ararat, AU


 



 


Tabular Data for March 23, 2018
Time Temperature Dew Point Pressure Wind Wind Speed Wind Gust Humidity Rainfall Rate (Hourly)
-17.8 °C -17.8 °C 0 hPa Calm     Humidity % 0 mm
00:02 16.9 °C 9.6 °C 1018.8 hPa Calm   1.9 km/h 62 % 0 mm
00:07 16.9 °C 9.4 °C 1018.8 hPa Calm     61 % 0 mm
00:12 16.8 °C 9.5 °C 1018.8 hPa Calm     62 % 0 mm
00:17 16.7 °C 9.3 °C 1018.8 hPa Calm     62 % 0 mm
00:22 16.5 °C 9.2 °C 1018.8 hPa Calm     62 % 0 mm
00:27 16.3 °C 9.3 °C 1018.8 hPa Calm     63 % 0 mm
00:32 16.2 °C 9.4 °C 1018.8 hPa Calm     64 % 0 mm
00:37 16.1 °C 9.2 °C 1018.8 hPa Calm     64 % 0 mm
00:42 15.9 °C 9.3 °C 1018.5 hPa Calm     65 % 0 mm
00:47 15.8 °C 9.2 °C 1018.5 hPa Calm   1.9 km/h 65 % 0 mm
00:52 15.7 °C 9.4 °C 1018.5 hPa NNE 0.2 km/h 1.9 km/h 66 % 0 mm
00:57 15.7 °C 9.3 °C 1018.5 hPa Calm   1.6 km/h 66 % 0 mm
01:02 15.6 °C 9.2 °C 1018.5 hPa NNE 0.2 km/h 1.9 km/h 66 % 0 mm
01:07 15.6 °C 9.2 °C 1018.5 hPa NNE 2.6 km/h 3.7 km/h 66 % 0 mm
01:12 16 °C 9.2 °C 1018.5 hPa NNE 2.7 km/h 5.6 km/h 64 % 0 mm
01:17 16.4 °C 9.1 °C 1018.5 hPa NNE 2.9 km/h 3.7 km/h 62 % 0 mm
01:22 16.7 °C 9.2 °C 1018.5 hPa NNE 2.1 km/h 3.7 km/h 61 % 0 mm
01:27 16.9 °C 9.1 °C 1018.5 hPa NNE 0.3 km/h 3.7 km/h 60 % 0 mm
01:32 17 °C 9.2 °C 1018.5 hPa NNE 1.9 km/h 5.6 km/h 60 % 0 mm
01:37 17.1 °C 9.2 °C 1018.5 hPa Calm   1.9 km/h 60 % 0 mm
01:42 17 °C 9.2 °C 1018.5 hPa NNE 2.1 km/h 3.7 km/h 60 % 0 mm
01:47 17 °C 9.2 °C 1018.5 hPa NNE 2.7 km/h 3.7 km/h 60 % 0 mm
01:52 17.2 °C 9.1 °C 1018.5 hPa NNE 3.5 km/h 5.6 km/h 59 % 0 mm
01:57 17.6 °C 9.2 °C 1018.5 hPa NNE 3.2 km/h 5.6 km/h 58 % 0 mm
02:02 17.9 °C 9 °C 1018.5 hPa NNE 2.9 km/h 5.6 km/h 56 % 0 mm
02:07 18.1 °C 9.1 °C 1018.5 hPa NNE 2.6 km/h 5.6 km/h 56 % 0 mm
02:12 18.2 °C 9 °C 1018.5 hPa NNE 3.5 km/h 5.6 km/h 55 % 0 mm
02:17 18.3 °C 8.8 °C 1018.5 hPa NNE 7.1 km/h 7.4 km/h 54 % 0 mm
02:22 18.6 °C 8.8 °C 1018.5 hPa NNE 7.1 km/h 7.4 km/h 53 % 0 mm
02:27 18.6 °C 8.8 °C 1018.5 hPa NNE 6.3 km/h 9.3 km/h 53 % 0 mm
02:32 18.6 °C 8.8 °C 1018.5 hPa NNE 7.4 km/h 11.3 km/h 53 % 0 mm
02:37 18.7 °C 8.6 °C 1018.5 hPa NNE 7.2 km/h 9.3 km/h 52 % 0 mm
02:42 18.8 °C 8.7 °C 1018.5 hPa NNE 6.9 km/h 9.3 km/h 52 % 0 mm
02:47 18.9 °C 8.5 °C 1018.5 hPa NNE 8.2 km/h 9.3 km/h 51 % 0 mm
02:52 19 °C 8.6 °C 1018.5 hPa NNE 7.1 km/h 13 km/h 51 % 0 mm
02:57 19.1 °C 8.7 °C 1018.5 hPa NNE 6.1 km/h 13 km/h 51 % 0 mm
03:02 19.2 °C 8.5 °C 1018.5 hPa NNE 6.1 km/h 7.4 km/h 50 % 0 mm
03:07 19 °C 8.6 °C 1018.5 hPa NNE 2.9 km/h 5.6 km/h 51 % 0 mm
03:12 18.4 °C 8.7 °C 1018.5 hPa NNE 3.4 km/h 5.6 km/h 53 % 0 mm
03:17 18 °C 8.6 °C 1018.5 hPa NNE 4 km/h 5.6 km/h 54 % 0 mm
03:22 17.6 °C 8.4 °C 1018.5 hPa NNE 3.9 km/h 5.6 km/h 55 % 0 mm
03:27 17.5 °C 8.6 °C 1018.5 hPa NNE 2.7 km/h 5.6 km/h 56 % 0 mm
03:32 17.4 °C 8.6 °C 1018.5 hPa NNE 2.6 km/h 3.7 km/h 56 % 0 mm
03:37 17.4 °C 8.6 °C 1018.5 hPa NNE 2.7 km/h 3.7 km/h 56 % 0 mm
03:42 17.4 °C 8.6 °C 1018.5 hPa NNE 3.7 km/h 5.6 km/h 56 % 0 mm
03:47 17.4 °C 8.6 °C 1018.5 hPa NNE 3.2 km/h 5.6 km/h 56 % 0 mm
03:52 17.5 °C 8.6 °C 1018.5 hPa NNE 4.5 km/h 5.6 km/h 56 % 0 mm
03:57 17.4 °C 8.8 °C 1018.5 hPa NNE 3.1 km/h 5.6 km/h 57 % 0 mm
04:02 17.4 °C 9.1 °C 1018.5 hPa NNE 4.8 km/h 5.6 km/h 58 % 0 mm
04:07 17.5 °C 9.2 °C 1018.5 hPa NNE 4.2 km/h 5.6 km/h 58 % 0 mm
04:12 17.6 °C 9.2 °C 1018.5 hPa NNE 2.4 km/h 5.6 km/h 58 % 0 mm
04:17 17.7 °C 9.6 °C 1018.5 hPa NNE 5 km/h 5.6 km/h 59 % 0 mm
04:22 17.9 °C 9.8 °C 1018.5 hPa NNE 4.2 km/h 11.1 km/h 59 % 0 mm
04:27 18.2 °C 10 °C 1018.5 hPa NNE 9 km/h 11.1 km/h 59 % 0 mm
04:32 18.4 °C 10 °C 1018.5 hPa NNE 9.7 km/h 16.7 km/h 58 % 0 mm
04:37 18.6 °C 10.2 °C 1018.5 hPa NNE 6.4 km/h 13 km/h 58 % 0 mm
04:42 18.7 °C 10.3 °C 1018.2 hPa NNE 8 km/h 9.3 km/h 58 % 0 mm
04:47 18.7 °C 10.3 °C 1018.2 hPa NNE 7.4 km/h 9.3 km/h 58 % 0 mm
04:52 18.8 °C 10.6 °C 1018.2 hPa NNE 7.9 km/h 11.3 km/h 59 % 0 mm
04:57 18.8 °C 10.7 °C 1018.2 hPa NNE 9.3 km/h 14.8 km/h 59 % 0 mm
05:02 18.8 °C 10.6 °C 1018.5 hPa NNE 8.4 km/h 9.7 km/h 59 % 0 mm
05:07 18.8 °C 10.6 °C 1018.2 hPa NNE 6.6 km/h 11.1 km/h 59 % 0 mm
05:12 18.8 °C 10.8 °C 1018.5 hPa NNE 7.7 km/h 13 km/h 60 % 0 mm
05:17 18.7 °C 10.7 °C 1018.5 hPa NNE 6.3 km/h 11.1 km/h 60 % 0 mm
05:22 18.6 °C 10.7 °C 1018.5 hPa NNE 5.6 km/h 13 km/h 60 % 0 mm
05:27 18.6 °C 10.9 °C 1018.5 hPa NNE 9.2 km/h 11.1 km/h 61 % 0 mm
05:32 18.4 °C 10.8 °C 1018.5 hPa NNE 7.2 km/h 9.3 km/h 61 % 0 mm
05:37 18.3 °C 10.9 °C 1018.5 hPa NNE 5 km/h 9.7 km/h 62 % 0 mm
05:43 18.2 °C 10.8 °C 1018.5 hPa NNE 6 km/h 13 km/h 62 % 0 mm
05:48 18.2 °C 10.8 °C 1018.5 hPa NNE 9.3 km/h 14.8 km/h 62 % 0 mm
05:52 18.2 °C 10.8 °C 1018.5 hPa NNE 9.5 km/h 16.1 km/h 62 % 0 mm
05:57 18.3 °C 10.6 °C 1018.5 hPa NNE 10.1 km/h 16.7 km/h 61 % 0 mm
06:02 18.3 °C 10.4 °C 1018.8 hPa NNE 10 km/h 18.5 km/h 60 % 0 mm
06:07 18.4 °C 10.5 °C 1018.8 hPa NNE 13.7 km/h 16.7 km/h 60 % 0 mm
06:12 18.4 °C 10.5 °C 1018.8 hPa NNE 10.3 km/h 16.7 km/h 60 % 0 mm
06:17 18.3 °C 10.2 °C 1018.8 hPa North 13 km/h 18.5 km/h 59 % 0 mm
06:22 18.3 °C 10.1 °C 1018.8 hPa NNE 10.5 km/h 16.7 km/h 59 % 0 mm
06:27 18.2 °C 10.3 °C 1018.8 hPa NNE 13.2 km/h 18.5 km/h 60 % 0 mm
06:32 18.1 °C 10.2 °C 1018.8 hPa NNE 11.4 km/h 16.7 km/h 60 % 0 mm
06:37 17.9 °C 10.1 °C 1018.8 hPa NNE 14 km/h 20.4 km/h 60 % 0 mm
06:42 17.9 °C 10 °C 1018.8 hPa NNE 11.1 km/h 22.2 km/h 60 % 0 mm
06:47 17.8 °C 9.9 °C 1018.8 hPa NNE 11.6 km/h 14.5 km/h 60 % 0 mm
06:53 17.8 °C 9.9 °C 1018.8 hPa NNE 14.6 km/h 18.5 km/h 60 % 0 mm
06:58 17.7 °C 9.8 °C 1019.2 hPa NNE 8.7 km/h 14.8 km/h 60 % 0 mm
07:03 17.7 °C 9.8 °C 1019.2 hPa NNE 12.1 km/h 18.5 km/h 60 % 0 mm
07:08 17.6 °C 9.7 °C 1019.2 hPa North 12.9 km/h 20.4 km/h 60 % 0 mm
07:13 17.6 °C 9.7 °C 1019.2 hPa NNE 14 km/h 22.2 km/h 60 % 0 mm
07:18 17.5 °C 9.9 °C 1019.2 hPa NNE 10.6 km/h 18.5 km/h 61 % 0 mm
07:23 17.4 °C 9.8 °C 1019.2 hPa NNE 10.8 km/h 14.8 km/h 61 % 0 mm
07:28 17.3 °C 9.7 °C 1019.2 hPa North 5.3 km/h 13 km/h 61 % 0 mm
07:33 17.3 °C 9.7 °C 1019.2 hPa North 10.6 km/h 18.5 km/h 61 % 0 mm
07:37 17.2 °C 9.6 °C 1019.2 hPa North 9.7 km/h 22.2 km/h 61 % 0 mm
07:42 17.2 °C 9.9 °C 1019.5 hPa NNE 7.6 km/h 18.5 km/h 62 % 0 mm
07:47 17.1 °C 9.8 °C 1019.5 hPa NNE 12.6 km/h 16.1 km/h 62 % 0 mm
07:53 17.2 °C 9.8 °C 1019.5 hPa NNE 10 km/h 14.8 km/h 62 % 0 mm
07:57 17.2 °C 9.8 °C 1019.5 hPa NNE 6.4 km/h 18.5 km/h 62 % 0 mm
08:03 17.1 °C 9.8 °C 1019.5 hPa NNE 11.3 km/h 16.1 km/h 62 % 0 mm
08:08 17.2 °C 9.8 °C 1019.5 hPa NNE 6.9 km/h 12.9 km/h 62 % 0 mm
08:13 17.2 °C 9.9 °C 1019.5 hPa NNE 10 km/h 14.8 km/h 62 % 0 mm
08:18 17.4 °C 9.8 °C 1019.5 hPa NNE 16.1 km/h 20.4 km/h 61 % 0 mm
08:23 17.5 °C 9.9 °C 1019.5 hPa North 15.8 km/h 20.4 km/h 61 % 0 mm
08:28 17.6 °C 9.7 °C 1019.5 hPa North 13.8 km/h 20.4 km/h 60 % 0 mm
08:33 17.7 °C 9.8 °C 1019.5 hPa NNE 11.9 km/h 20.4 km/h 60 % 0 mm
08:38 17.7 °C 9.8 °C 1019.5 hPa NNE 7.4 km/h 13 km/h 60 % 0 mm
08:43 17.9 °C 10 °C 1019.5 hPa NNE 16.7 km/h 16.7 km/h 60 % 0 mm
08:48 18 °C 10.1 °C 1019.5 hPa NE 6.9 km/h 13 km/h 60 % 0 mm
08:53 18.1 °C 9.9 °C 1019.5 hPa North 10.5 km/h 14.8 km/h 59 % 0 mm
08:58 18.2 °C 10.1 °C 1019.9 hPa North 10 km/h 13 km/h 59 % 0 mm
09:03 18.4 °C 10.2 °C 1019.9 hPa NE 4 km/h 8 km/h 59 % 0 mm
09:08 18.6 °C 10.2 °C 1019.9 hPa NE 6.9 km/h 19.3 km/h 58 % 0 mm
09:13 18.7 °C 10.2 °C 1019.9 hPa NNE 17.1 km/h 25.9 km/h 58 % 0 mm
09:18 18.7 °C 10.2 °C 1019.9 hPa NNE 11.3 km/h 18.5 km/h 58 % 0 mm
09:23 18.8 °C 10.4 °C 1019.9 hPa NNE 16.6 km/h 20.9 km/h 58 % 0 mm
09:28 19 °C 10.3 °C 1019.9 hPa North 14.6 km/h 25.9 km/h 57 % 0 mm
09:38 19.4 °C 10.4 °C 1019.9 hPa North 14.8 km/h 20.4 km/h 56 % 0 mm
09:43 19.6 °C 10.6 °C 1019.9 hPa North 13 km/h 16.7 km/h 56 % 0 mm
09:48 19.7 °C 10.4 °C 1019.5 hPa NNE 17.4 km/h 22.2 km/h 55 % 0 mm
09:53 19.9 °C 10.6 °C 1019.9 hPa NNE 10.6 km/h 16.7 km/h 55 % 0 mm
09:58 20.1 °C 10.5 °C 1019.9 hPa ENE 10.3 km/h 18.5 km/h 54 % 0 mm
10:03 20.3 °C 10.7 °C 1019.5 hPa NE 6.9 km/h 11.1 km/h 54 % 0 mm
10:08 20.5 °C 10.6 °C 1019.5 hPa NNE 14.2 km/h 22.2 km/h 53 % 0 mm
10:13 20.5 °C 10.6 °C 1019.5 hPa NE 13.2 km/h 22.2 km/h 53 % 0 mm
10:18 20.6 °C 10.7 °C 1019.5 hPa NNE 14 km/h 35.2 km/h 53 % 0 mm
10:23 20.6 °C 10.7 °C 1019.5 hPa NE 17.2 km/h 24.1 km/h 53 % 0 mm
10:28 20.7 °C 10.8 °C 1019.5 hPa ENE 12.7 km/h 16.7 km/h 53 % 0 mm
10:33 21.2 °C 10.9 °C 1019.5 hPa ENE 12.7 km/h 16.7 km/h 52 % 0 mm
10:38 21.2 °C 10.9 °C 1019.5 hPa NE 13.2 km/h 24.1 km/h 52 % 0 mm
10:43 21.1 °C 10.9 °C 1019.5 hPa NNE 11.7 km/h 18.5 km/h 52 % 0 mm
10:48 21.4 °C 11.2 °C 1019.2 hPa NNE 10 km/h 18.5 km/h 52 % 0 mm
10:53 21.7 °C 11.1 °C 1019.2 hPa North 9.8 km/h 13 km/h 51 % 0 mm
10:58 22 °C 11.1 °C 1019.2 hPa NE 13.4 km/h 20.9 km/h 50 % 0 mm
11:03 22.2 °C 11.3 °C 1019.2 hPa North 8.4 km/h 16.7 km/h 50 % 0 mm
11:08 22.4 °C 11.2 °C 1018.8 hPa NE 13.8 km/h 25.7 km/h 49 % 0 mm
11:13 22.2 °C 11 °C 1018.8 hPa North 12.6 km/h 18.5 km/h 49 % 0 mm
11:19 22.4 °C 11.2 °C 1018.8 hPa NNE 14 km/h 22.5 km/h 49 % 0 mm
11:23 22.4 °C 10.9 °C 1018.8 hPa NNE 14.5 km/h 20.4 km/h 48 % 0 mm
11:28 22.7 °C 10.8 °C 1018.5 hPa North 18.2 km/h 29.6 km/h 47 % 0 mm
11:33 22.8 °C 11.2 °C 1018.5 hPa NNE 11.3 km/h 20.4 km/h 48 % 0 mm
11:39 22.9 °C 11 °C 1018.5 hPa NNE 18.7 km/h 24.1 km/h 47 % 0 mm
11:44 22.9 °C 10.7 °C 1018.5 hPa North 15.8 km/h 25.9 km/h 46 % 0 mm
11:49 23.1 °C 10.5 °C 1018.2 hPa NNE 18 km/h 25.9 km/h 45 % 0 mm
11:54 23.2 °C 10.6 °C 1018.2 hPa NNE 16.6 km/h 18.5 km/h 45 % 0 mm
11:58 23.3 °C 10.7 °C 1018.2 hPa NNE 12.6 km/h 29.6 km/h 45 % 0 mm
12:03 23.4 °C 10.8 °C 1018.2 hPa NE 14.3 km/h 27.8 km/h 45 % 0 mm
12:08 23.4 °C 10.4 °C 1018.2 hPa NNE 18.3 km/h 31.5 km/h 44 % 0 mm
12:13 23.5 °C 10.6 °C 1018.2 hPa NNE 21.1 km/h 29.6 km/h 44 % 0 mm
12:18 23.5 °C 10.9 °C 1018.2 hPa NNE 14.6 km/h 27.8 km/h 45 % 0 mm
12:23 23.7 °C 11.1 °C 1017.8 hPa North 13.2 km/h 16.7 km/h 45 % 0 mm
12:28 24.1 °C 11.1 °C 1017.8 hPa North 8.5 km/h 22.2 km/h 44 % 0 mm
12:33 24.2 °C 10.8 °C 1017.8 hPa NNE 20.4 km/h 29.6 km/h 43 % 0 mm
12:38 24.5 °C 10.7 °C 1017.5 hPa NE 13 km/h 29.6 km/h 42 % 0 mm
12:43 24.7 °C 10.6 °C 1017.5 hPa North 14.5 km/h 24.1 km/h 41 % 0 mm
12:48 24.8 °C 10.6 °C 1017.2 hPa North 17.9 km/h 24.1 km/h 41 % 0 mm
12:53 24.8 °C 10.7 °C 1017.2 hPa NNE 20.4 km/h 25.9 km/h 41 % 0 mm
12:59 24.9 °C 10.8 °C 1017.2 hPa NNE 14.5 km/h 19.3 km/h 41 % 0 mm
13:04 24.9 °C 11.1 °C 1017.2 hPa NE 8 km/h 19.3 km/h 42 % 0 mm
13:09 25.2 °C 10.7 °C 1017.2 hPa North 14.8 km/h 22.2 km/h 40 % 0 mm
13:14 25.2 °C 10.6 °C 1016.8 hPa North 15.1 km/h 27.8 km/h 40 % 0 mm
13:19 25.2 °C 10.7 °C 1016.8 hPa NW 20 km/h 20.4 km/h 40 % 0 mm
13:24 25.2 °C 10.6 °C 1016.8 hPa NNE 21.2 km/h 27.4 km/h 40 % 0 mm
13:29 25.2 °C 11.1 °C 1016.8 hPa NNE 17.1 km/h 20.4 km/h 41 % 0 mm
13:34 25.4 °C 10.5 °C 1016.5 hPa NNE 22.4 km/h 22.5 km/h 39 % 0 mm
13:39 25.3 °C 10.3 °C 1016.5 hPa NNE 10.1 km/h 22.2 km/h 39 % 0 mm
13:44 25.2 °C 10.7 °C 1016.5 hPa North 18.3 km/h 25.9 km/h 40 % 0 mm
13:49 25.3 °C 10.4 °C 1016.5 hPa North 13.2 km/h 29.6 km/h 39 % 0 mm
13:54 25.5 °C 10.5 °C 1016.1 hPa NNW 19.6 km/h 33.3 km/h 39 % 0 mm
13:59 25.6 °C 9.8 °C 1016.1 hPa NNE 22 km/h 31.5 km/h 37 % 0 mm
14:04 25.8 °C 10 °C 1016.1 hPa North 19.8 km/h 27.8 km/h 37 % 0 mm
14:09 25.6 °C 10.2 °C 1016.1 hPa North 16.1 km/h 25.9 km/h 38 % 0 mm
14:14 25.7 °C 10.7 °C 1015.8 hPa NW 11.7 km/h 18.5 km/h 39 % 0 mm
14:19 25.8 °C 10.4 °C 1015.8 hPa NNW 18.2 km/h 31.5 km/h 38 % 0 mm
14:24 25.8 °C 10.4 °C 1015.8 hPa North 19.3 km/h 24.1 km/h 38 % 0 mm
14:29 26.1 °C 10.6 °C 1015.5 hPa NNW 12.2 km/h 24.1 km/h 38 % 0 mm
14:34 25.9 °C 10.5 °C 1015.5 hPa North 10.6 km/h 24.1 km/h 38 % 0 mm
14:39 26.2 °C 10.8 °C 1015.5 hPa NNE 16.4 km/h 20.9 km/h 38 % 0 mm
14:44 26.4 °C 10.5 °C 1015.5 hPa NNE 14 km/h 22.5 km/h 37 % 0 mm
14:49 26.4 °C 10.5 °C 1015.1 hPa ENE 17.7 km/h 20.4 km/h 37 % 0 mm
14:54 26.4 °C 10.6 °C 1015.1 hPa NNE 12.9 km/h 27.8 km/h 37 % 0 mm
14:58 26.4 °C 10.6 °C 1015.1 hPa NNE 7.7 km/h 16.7 km/h 37 % 0 mm
15:03 26.5 °C 10.6 °C 1015.1 hPa NE 12.2 km/h 22.2 km/h 37 % 0 mm
15:09 26.7 °C 10.8 °C 1015.1 hPa NE 8.5 km/h 13 km/h 37 % 0 mm
15:14 26.8 °C 10.9 °C 1014.8 hPa NNW 14.2 km/h 22.2 km/h 37 % 0 mm
15:19 26.9 °C 10.6 °C 1014.8 hPa North 15.3 km/h 27.8 km/h 36 % 0 mm
15:24 27.1 °C 10.7 °C 1014.8 hPa North 14.5 km/h 27.8 km/h 36 % 0 mm
15:29 26.9 °C 10.6 °C 1014.8 hPa NNW 15.9 km/h 22.2 km/h 36 % 0 mm
15:34 26.5 °C 10.6 °C 1014.8 hPa NNW 10.3 km/h 20.4 km/h 37 % 0 mm
15:39 26.5 °C 11 °C 1014.8 hPa NNE 5.8 km/h 11.1 km/h 38 % 0 mm
15:44 27 °C 11.1 °C 1014.4 hPa North 9.5 km/h 16.7 km/h 37 % 0 mm
15:49 27.5 °C 11.1 °C 1014.4 hPa NE 14.6 km/h 20.4 km/h 36 % 0 mm
15:54 27.2 °C 11.2 °C 1014.4 hPa NE 9.7 km/h 20.4 km/h 37 % 0 mm
15:59 27.1 °C 11.2 °C 1014.4 hPa North 19.5 km/h 27.8 km/h 37 % 0 mm
16:04 26.9 °C 11 °C 1014.4 hPa NNE 16.4 km/h 22.2 km/h 37 % 0 mm
16:09 26.9 °C 10.9 °C 1014.4 hPa NE 18.3 km/h 24.1 km/h 37 % 0 mm
16:14 26.9 °C 10.9 °C 1014.1 hPa NNE 8.4 km/h 11.1 km/h 37 % 0 mm
16:19 27.2 °C 10.8 °C 1014.1 hPa North 20 km/h 25.9 km/h 36 % 0 mm
16:24 27.2 °C 11.2 °C 1014.1 hPa NE 12.7 km/h 27.4 km/h 37 % 0 mm
16:29 27.2 °C 11.3 °C 1014.1 hPa NNE 13.4 km/h 18.5 km/h 37 % 0 mm
16:34 27.4 °C 11.1 °C 1014.1 hPa NNE 12.2 km/h 22.5 km/h 36 % 0 mm
16:39 27.4 °C 11 °C 1013.8 hPa NNE 11.6 km/h 18.5 km/h 36 % 0 mm
16:44 27.4 °C 11.1 °C 1013.8 hPa NNE 9 km/h 13 km/h 36 % 0 mm
16:49 27.7 °C 11.2 °C 1013.8 hPa NE 10.6 km/h 18.5 km/h 36 % 0 mm
16:54 27.4 °C 11 °C 1013.8 hPa NE 10.8 km/h 32.2 km/h 36 % 0 mm
16:59 27.3 °C 11.3 °C 1013.8 hPa NNE 9.2 km/h 14.8 km/h 37 % 0 mm
17:04 27.2 °C 10.8 °C 1013.8 hPa NNE 16.6 km/h 24.1 km/h 36 % 0 mm
17:09 26.7 °C 11.2 °C 1013.8 hPa North 13 km/h 25.9 km/h 38 % 0 mm
17:14 26.6 °C 11.1 °C 1013.8 hPa NNE 12.1 km/h 18.5 km/h 38 % 0 mm
17:19 26.9 °C 11.4 °C 1013.4 hPa NNE 2.7 km/h 11.1 km/h 38 % 0 mm
17:24 27.2 °C 11.2 °C 1013.4 hPa NNE 15.6 km/h 24.1 km/h 37 % 0 mm
17:29 27.3 °C 11.3 °C 1013.4 hPa NE 10.5 km/h 20.4 km/h 37 % 0 mm
17:34 27.3 °C 11.3 °C 1013.4 hPa NNE 11.7 km/h 22.2 km/h 37 % 0 mm
17:39 27.3 °C 11.3 °C 1013.4 hPa NNE 11.1 km/h 25.7 km/h 37 % 0 mm
17:44 27.1 °C 11.6 °C 1013.4 hPa NNE 13 km/h 25.9 km/h 38 % 0 mm
17:49 26.9 °C 11.4 °C 1013.4 hPa North 11.7 km/h 20.4 km/h 38 % 0 mm
17:54 26.9 °C 11.4 °C 1013.4 hPa North 11.3 km/h 18.5 km/h 38 % 0 mm
17:59 26.9 °C 11.4 °C 1013.4 hPa North 11.1 km/h 14.8 km/h 38 % 0 mm
18:04 26.5 °C 11.4 °C 1013.4 hPa North 11.6 km/h 19.3 km/h 39 % 0 mm
18:09 26.2 °C 11.6 °C 1013.4 hPa North 15 km/h 22.2 km/h 40 % 0 mm
18:14 26.2 °C 11.6 °C 1013.4 hPa North 9.7 km/h 24.1 km/h 40 % 0 mm
18:19 26.3 °C 11.6 °C 1013.4 hPa NNE 16.1 km/h 20.4 km/h 40 % 0 mm
18:24 26.3 °C 11.6 °C 1013.4 hPa NNE 4.5 km/h 18.5 km/h 40 % 0 mm
18:29 26.3 °C 12 °C 1013.4 hPa North 10.5 km/h 13 km/h 41 % 0 mm
18:34 26.1 °C 11.8 °C 1013.4 hPa North 10.6 km/h 18.5 km/h 41 % 0 mm
18:39 26.1 °C 11.8 °C 1013.4 hPa North 9.8 km/h 14.8 km/h 41 % 0 mm
18:44 25.9 °C 12 °C 1013.4 hPa NNW 7.7 km/h 13 km/h 42 % 0 mm
18:49 25.7 °C 11.8 °C 1013.4 hPa North 9.2 km/h 11.1 km/h 42 % 0 mm
18:54 25.4 °C 11.9 °C 1013.4 hPa NNE 14.3 km/h 20.4 km/h 43 % 0 mm
18:59 25.2 °C 12.1 °C 1013.4 hPa North 11.7 km/h 16.7 km/h 44 % 0 mm
19:04 25.1 °C 12 °C 1013.4 hPa North 12.1 km/h 19.3 km/h 44 % 0 mm
19:09 24.9 °C 11.8 °C 1013.4 hPa NNW 8 km/h 18.5 km/h 44 % 0 mm
19:14 24.8 °C 12.1 °C 1013.4 hPa North 12.2 km/h 16.1 km/h 45 % 0 mm
19:19 24.7 °C 12 °C 1013.4 hPa North 7.4 km/h 11.1 km/h 45 % 0 mm
19:24 24.6 °C 11.8 °C 1013.4 hPa North 5.8 km/h 11.1 km/h 45 % 0 mm
19:29 24.4 °C 12 °C 1013.4 hPa North 6.3 km/h 9.3 km/h 46 % 0 mm
19:34 24.3 °C 11.9 °C 1013.4 hPa North 5 km/h 5.6 km/h 46 % 0 mm
19:39 24.1 °C 12.1 °C 1013.4 hPa North 7.7 km/h 11.1 km/h 47 % 0 mm
19:44 24 °C 12 °C 1013.4 hPa North 6.8 km/h 9.3 km/h 47 % 0 mm
19:49 23.9 °C 11.9 °C 1013.4 hPa North 9.3 km/h 11.3 km/h 47 % 0 mm
19:54 23.8 °C 12.1 °C 1013.8 hPa North 5.6 km/h 11.1 km/h 48 % 0 mm
19:59 23.7 °C 12 °C 1013.8 hPa North 7.1 km/h 9.3 km/h 48 % 0 mm
20:04 23.6 °C 11.9 °C 1013.8 hPa North 3.1 km/h 5.6 km/h 48 % 0 mm
20:09 23.4 °C 12.1 °C 1013.8 hPa North 6.9 km/h 9.3 km/h 49 % 0 mm
20:14 23.3 °C 12 °C 1013.8 hPa North 6.8 km/h 6.8 km/h 49 % 0 mm
20:19 23.2 °C 11.9 °C 1013.8 hPa North 6.9 km/h 13 km/h 49 % 0 mm
20:24 23.2 °C 11.8 °C 1013.8 hPa North 8.9 km/h 9.3 km/h 49 % 0 mm
20:29 23.1 °C 11.8 °C 1013.8 hPa North 6.9 km/h 7.4 km/h 49 % 0 mm
20:34 22.9 °C 11.9 °C 1014.1 hPa North 3.9 km/h 8 km/h 50 % 0 mm
20:39 22.8 °C 11.9 °C 1014.1 hPa North 3.9 km/h 9.3 km/h 50 % 0 mm
20:44 22.7 °C 11.8 °C 1014.1 hPa North 5.3 km/h 8 km/h 50 % 0 mm
20:49 22.6 °C 11.7 °C 1014.1 hPa North 6.6 km/h 9.3 km/h 50 % 0 mm
20:54 22.6 °C 11.9 °C 1014.1 hPa North 5.6 km/h 9.7 km/h 51 % 0 mm
20:58 22.5 °C 11.8 °C 1014.1 hPa North 4.7 km/h 9.3 km/h 51 % 0 mm
21:03 22.4 °C 11.8 °C 1014.1 hPa North 4.5 km/h 9.3 km/h 51 % 0 mm
21:09 22.3 °C 12 °C 1014.1 hPa North 4 km/h 11.1 km/h 52 % 0 mm
21:14 22.2 °C 11.9 °C 1014.1 hPa North 4 km/h 5.6 km/h 52 % 0 mm
21:19 22.2 °C 11.8 °C 1014.1 hPa North 3.1 km/h 5.6 km/h 52 % 0 mm
21:24 22.1 °C 12.1 °C 1014.1 hPa North 2.9 km/h 5.6 km/h 53 % 0 mm
21:34 21.8 °C 11.8 °C 1014.1 hPa North 5.1 km/h 7.4 km/h 53 % 0 mm
21:39 21.7 °C 12 °C 1014.1 hPa North 3.5 km/h 5.6 km/h 54 % 0 mm
21:44 21.7 °C 11.9 °C 1014.1 hPa North 5 km/h 5.6 km/h 54 % 0 mm
21:49 21.6 °C 12.2 °C 1014.1 hPa North 4.8 km/h 9.7 km/h 55 % 0 mm
21:54 21.5 °C 12.1 °C 1014.1 hPa North 2.4 km/h 7.4 km/h 55 % 0 mm
21:59 21.4 °C 12 °C 1014.1 hPa North 5.6 km/h 9.7 km/h 55 % 0 mm
22:04 21.2 °C 11.8 °C 1014.1 hPa North 6.1 km/h 7.4 km/h 55 % 0 mm
22:09 21.2 °C 12.1 °C 1014.1 hPa North 6.6 km/h 11.1 km/h 56 % 0 mm
22:14 21.2 °C 12.1 °C 1014.1 hPa North 6.6 km/h 9.3 km/h 56 % 0 mm
22:19 21.2 °C 12.1 °C 1014.1 hPa North 5.3 km/h 11.1 km/h 56 % 0 mm
22:24 21.1 °C 12.3 °C 1014.1 hPa North 5.5 km/h 7.4 km/h 57 % 0 mm
22:29 21.1 °C 12.2 °C 1014.1 hPa North 2.3 km/h 9.3 km/h 57 % 0 mm
22:34 21 °C 12.2 °C 1014.1 hPa North 5.3 km/h 9.3 km/h 57 % 0 mm
22:39 20.9 °C 12.4 °C 1013.8 hPa North 6.9 km/h 11.1 km/h 58 % 0 mm
22:44 20.8 °C 12.3 °C 1013.8 hPa North 5.5 km/h 11.1 km/h 58 % 0 mm
22:49 20.8 °C 12.2 °C 1013.8 hPa North 5.3 km/h 13 km/h 58 % 0 mm
22:54 20.7 °C 12.2 °C 1013.8 hPa North 6.6 km/h 9.3 km/h 58 % 0 mm
22:59 20.7 °C 12.4 °C 1013.8 hPa North 5.5 km/h 8 km/h 59 % 0 mm
23:04 20.6 °C 12.3 °C 1013.8 hPa North 8.5 km/h 11.1 km/h 59 % 0 mm
23:09 20.4 °C 12.4 °C 1013.4 hPa North 5.8 km/h 7.4 km/h 60 % 0 mm
23:14 20.4 °C 12.4 °C 1013.4 hPa North 4.2 km/h 7.4 km/h 60 % 0 mm
23:19 20.2 °C 12.2 °C 1013.4 hPa North 2.9 km/h 5.6 km/h 60 % 0 mm
23:24 20.1 °C 12.3 °C 1013.4 hPa North 4.2 km/h 7.4 km/h 61 % 0 mm
23:29 20.1 °C 12.3 °C 1013.4 hPa North 4.7 km/h 7.4 km/h 61 % 0 mm
23:34 20.1 °C 12.6 °C 1013.4 hPa North 4 km/h 5.6 km/h 62 % 0 mm
23:39 20.1 °C 12.6 °C 1013.4 hPa North 6.6 km/h 11.1 km/h 62 % 0 mm
23:44 20.2 °C 12.7 °C 1013.4 hPa North 5.6 km/h 7.4 km/h 62 % 0 mm
23:49 20.2 °C 12.7 °C 1013.4 hPa North 6.3 km/h 11.3 km/h 62 % 0 mm
23:54 20.2 °C 12.7 °C 1013.4 hPa North 2.9 km/h 9.3 km/h 62 % 0 mm
23:59 20.1 °C 12.6 °C 1013.4 hPa North 0.8 km/h 3.7 km/h 62 % 0 mm
Ararat Weather
Compliments of Weather Underground - 2.25 mb
Click here to send mail.


ABOUT

Live weather data from Ararat, Victoria, Australia, 3377
Data uploaded from Cumulus every 5 minutes to Weather Underground.
This site then downloads the raw data for formatting and display.
Metric and imperial data can be displayed. Graphs and historical data available.
Includes Sun and Moon times and rain image live from BOM.

Check out Ararat Weather on Facebook, Twitter and Google +

Help support ongoing costs by checking out the ads





Follow @AraratWeather